Flag for Germany Weather past 2 weeks in Weimar, Thuringia, Germany

Now
73 °F

Sunny.


Feels Like: 76 °F
Forecast: 71 / 92 °F
Wind: 6 mph from South

Location: Erfurt-Bindersleben

Current Time: Jul 4, 2015 at 7:23:43 AM

Latest Report: Jul 4, 2015 at 6:50 AM


Visibility: 10 mi

Pressure: 30.18 "Hg

Humidity: 65%

Dew point: 61 °F

Location of WeimarLocation

Historic Weather in Weimar — Graph

°F

Weimar temperature yesterday

Maximum temperature yesterday: 93 °F (at 4:50 PM)
Minimum temperature yesterday: 70 °F (at 2:50 AM)
Average temperature yesterday: 79 °F

Past Weeks' High & Low Weather Summary

 TemperatureHumidityPressure
High93 °F (Jul 3, 4:50 PM)100% (Jun 23, 1:20 AM)30.30 "Hg (Jun 23, 1:20 AM)
Low43 °F (Jun 21, 3:20 AM)30% (Jul 3, 4:20 PM)29.65 "Hg (Jun 23, 12:50 AM)
Average63 °F68%30.09 "Hg
* Reported Jun 19 6:20 AM — Jul 4 6:20 AM, Weimar, Weather by CustomWeather, © 2015

Note: Actual official high and low records may vary slightly from our data, if they occured in-between our weather recording intervals... More about our weather records

Advertising

Weimar weather history for previous 24 hours

 ConditionsComfort  
Time TempWeatherWind HumidityBarometerVisibility
6:20 AM
Sat, Jul 4
73 °FSunny.3 mph69%30.18 "Hg10 mi
5:50 AM72 °FClear.5 mph73%30.18 "Hg10 mi
5:20 AM68 °FClear.5 mph83%30.18 "Hg10 mi
4:50 AM68 °FClear.2 mph83%30.18 "Hg10 mi
4:20 AM68 °FClear.5 mph83%30.18 "Hg10 mi
3:50 AM68 °FClear.3 mph83%30.18 "Hg10 mi
3:20 AM68 °FClear.3 mph88%30.21 "Hg10 mi
2:50 AM70 °FClear.2 mph83%30.21 "Hg10 mi
2:20 AM70 °FClear.3 mph83%30.21 "Hg10 mi
1:50 AM72 °FClear.1 mph78%30.21 "Hg10 mi
1:20 AM72 °FClear.3 mph73%30.21 "Hg10 mi
12:50 AM73 °FClear.3 mph69%30.21 "Hg10 mi
12:20 AM75 °FClear.1 mph61%30.24 "Hg10 mi
11:50 PM
Fri, Jul 3
75 °FClear.2 mph61%30.24 "Hg10 mi
11:20 PM75 °FClear.2 mph65%30.24 "Hg10 mi
10:50 PM73 °FClear.3 mph69%30.24 "Hg10 mi
10:20 PM75 °FSunny.1 mph65%30.24 "Hg10 mi
9:50 PM75 °FSunny.5 mph65%30.24 "Hg10 mi
9:20 PM75 °FSunny.5 mph69%30.24 "Hg10 mi
8:50 PM77 °FPassing clouds.9 mph61%30.24 "HgN/A
8:20 PM79 °FPassing clouds.3 mph58%30.21 "HgN/A
7:50 PM73 °FSprinkles. Scattered clouds.6 mph74%30.24 "HgN/A
7:20 PM77 °FThunderstorms. Scattered clouds.2 mph65%30.24 "HgN/A
6:50 PM79 °FThunderstorms. Scattered clouds.7 mph54%30.21 "HgN/A
6:20 PM84 °FThunderstorms. Scattered clouds.7 mph40%30.21 "HgN/A
5:50 PM91 °FThunderstorms. Scattered clouds.5 mph32%30.21 "HgN/A
5:20 PM91 °FThundershowers. Passing clouds.6 mph30%30.21 "HgN/A
4:50 PM93 °FPassing clouds.2 mph30%30.21 "HgN/A
4:20 PM91 °FSunny.7 mph30%30.21 "Hg10 mi
3:50 PM91 °FSunny.5 mph32%30.24 "Hg10 mi
3:20 PM91 °FSunny.6 mph32%30.24 "Hg10 mi
2:50 PM90 °FSunny.6 mph33%30.24 "Hg10 mi
2:20 PM90 °FSunny.6 mph33%30.24 "Hg10 mi
1:50 PM90 °FPassing clouds.6 mph33%30.24 "HgN/A
1:20 PM88 °FSunny.8 mph38%30.27 "Hg10 mi
12:50 PM86 °FSunny.9 mph38%30.27 "Hg10 mi
12:20 PM84 °FSunny.9 mph40%30.27 "Hg10 mi
11:50 AM84 °FScattered clouds.12 mph43%30.30 "HgN/A
11:20 AM82 °FScattered clouds.12 mph48%30.30 "HgN/A
10:50 AM81 °FScattered clouds.10 mph54%30.30 "HgN/A
10:20 AM81 °FSunny.12 mph51%30.30 "Hg10 mi
9:50 AM79 °FSunny.7 mph58%30.27 "Hg10 mi
9:20 AM77 °FSunny.6 mph57%30.27 "Hg10 mi
8:50 AM75 °FSunny.6 mph61%30.24 "Hg10 mi
8:20 AM75 °FSunny.5 mph61%30.24 "Hg10 mi
7:50 AM75 °FSunny.2 mph57%30.24 "Hg10 mi
7:20 AM73 °FSunny.2 mph61%30.24 "Hg10 mi
Weather by CustomWeather, © 2015

See weather overviewHow to use our weather pages